sat.trackr.live / text

‹ back to catalog

ION SCV-017

NORAD 63230 · 2025-052W

PAYLOAD ACTIVE UNKNOWN

§ Identity

Operator
Country
IT
Launch date
2025-03-15
Launch site
AFWTR
Launch vehicle
Mass (kg)
RCS (m²)

External: N2YO · Heavens-Above · Gunter

§ Orbital elements

Epoch: 2026-05-25T04:14:12.496128Z

Period
94.27 min
Inclination
97.3935°
Eccentricity
0.0023523
Mean motion
15.27569655 rev/d
Perigee alt
466.9 km
Apogee alt
499.2 km
Semi-major
6,861.2 km
B*
1.5004e-4
RAAN
40.5540°
Arg perigee
128.4005°
Mean anomaly
231.9351°
Rev number
6,652

§ Raw data

ION SCV-0171 63230U 25052W   26145.17653352  .00004001  00000+0  15004-3 0  99952 63230  97.3935  40.5540 0023523 128.4005 231.9351 15.27569655 66529

JSON: /api/v1/satellites/63230 · /tle

For live sub-satellite position, see the globe view (requires WebGL).

§ Visibility from observer

Set your observer location to see the next 7 days of passes ≥ 10°. The values pass through the URL so the page stays shareable.

No JS? Fill the form by hand. The geolocation button needs JavaScript.

§ Radio — SatNOGS DB

ModeDescriptionDownlinkUplink
BPSK Mode S - Transmitter 2.276 GHz
FSK AX.100 Mode 5 Mode U - FSK1k2 AX.100 401.415 MHz

2 transmitters · refreshed weekly from db.satnogs.org